Location: Hoyos del Collado
(40.3594°N, 5.2003°W)
Time: 05:40:01
(UTC+00:00)

SPOT 3 Rocket - Visible Passes

Search period start: 13 July 2024 00:00
Search period end: 23 July 2024 00:00
Orbit: 777 x 791 km, 98.6° (Epoch: 12 July)

Date Brightness Start Highest point End Pass type
(mag) Time Alt. Az. Time Alt. Az. Time Alt. Az.
13 Jul 3.5 21:41:30 28° SSE 21:44:14 72° ENE 21:49:27 10° N visible
13 Jul 5.9 23:22:06 11° WSW 23:24:06 13° W 23:26:31 10° WNW visible
14 Jul 4.3 21:10:00 18° SE 21:13:14 37° ENE 21:18:00 10° N visible
14 Jul 5.2 22:50:36 21° SW 22:52:39 26° W 22:57:00 10° NW visible
15 Jul 5.1 20:38:41 10° ESE 20:42:23 20° ENE 20:46:06 10° NNE visible
15 Jul 4.1 22:19:07 31° SSW 22:21:20 51° W 22:26:26 10° NNW visible
16 Jul 3.5 21:47:37 31° SSE 21:50:10 81° ENE 21:55:25 10° NNW visible
16 Jul 6.0 23:28:31 10° WSW 23:30:07 11° W 23:31:45 10° WNW visible
17 Jul 4.2 21:16:09 21° SE 21:19:08 42° ENE 21:24:01 10° N visible
17 Jul 5.3 22:56:45 19° SW 22:58:38 23° W 23:02:46 10° NW visible
18 Jul 5.0 20:44:39 11° ESE 20:48:16 23° ENE 20:52:15 10° NNE visible
18 Jul 4.3 22:25:15 30° SSW 22:27:18 45° W 22:32:18 10° NNW visible
19 Jul 5.6 20:15:34 10° E 20:17:32 12° ENE 20:19:29 10° NE visible
19 Jul 3.5 21:53:46 34° SSE 21:56:06 89° WSW 22:01:21 10° NNW visible
20 Jul 4.0 21:22:17 24° SE 21:25:03 47° ENE 21:30:03 10° N visible
20 Jul 5.4 23:02:53 17° WSW 23:04:38 20° W 23:08:28 10° NW visible
21 Jul 4.8 20:50:47 14° ESE 20:54:08 25° ENE 20:58:21 10° NNE visible
21 Jul 4.5 22:31:24 30° SW 22:33:16 40° W 22:38:10 10° NNW visible
22 Jul 5.5 20:20:50 10° E 20:23:22 14° ENE 20:25:54 10° NNE visible
22 Jul 3.6 21:59:55 37° S 22:02:02 79° WSW 22:07:17 10° NNW visible
